Hermiston, OR

9:49 PM PDT on August 16, 2017 (GMT -0700)
Hermiston Municipal

Weather History for KHRI - September, 2013

Change the Weather History Date:

Thursday, September 26, 2013

  Actual Average Record
Temperature  
Mean Temperature 56 °F 59 °F  
Max Temperature 66 °F 75 °F 98 °F (1952)
Min Temperature 48 °F 43 °F 25 °F (1926)
Degree Days  
Heating Degree Days 9    
Growing Degree Days 6 (Base 50)    
Moisture  
Dew Point 42 °F    
Average Humidity 64    
Maximum Humidity 80    
Minimum Humidity 42    
Precipitation  
Precipitation 0.00 in 0.02 in 0.67 in (1982)
Month to date precipitation 0.40  
Year to date precipitation 7.02  
Sea Level Pressure  
Sea Level Pressure 30.00 in    
Wind  
Wind Speed 6 mph (WSW)    
Max Wind Speed 9 mph    
Max Gust Speed -    
Visibility 10 miles    
Events Rain    
T = Trace of Precipitation, MM = Missing Value Source: NWS Daily Summary

Daily Weather History Graph

Daily Weather History Graph

Search for Another Location

Airport or City:

Trip Planner

Search our weather history database for the weather conditions in past years. The results will help you decide how hot, cold, wet, or windy it might be!

Date:

Astronomy

Sep. 26, 2013 Rise Set
Actual Time 6:49 AM PDT 6:46 PM PDT
Civil Twilight 6:19 AM PDT 7:15 PM PDT
Nautical Twilight 5:44 AM PDT 7:50 PM PDT
Astronomical Twilight 5:09 AM PDT 8:25 PM PDT
Moon 11:33 PM PDT (9/26) 2:01 PM PDT (9/26)
Length of Visible Light 12h 56m
Length of Day
11h 56m
Waning Gibbous, 53% of the Moon is Illuminated
Sep 26
Waning Gibbous
Sep 26
Last Quarter
Oct 4
New
Oct 11
First Quarter
Oct 18
Full

Hourly Weather History & Observations

Time (PDT) Temp. Dew Point Humidity Pressure Visibility Wind Dir Wind Speed Gust Speed Precip Events Conditions
12:53 AM 51.1 °F 43.0 °F 74% 29.91 in 10.0 mi WSW 6.9 mph - N/A   Mostly Cloudy
1:53 AM 50.0 °F 41.0 °F 71% 29.92 in 10.0 mi West 6.9 mph - N/A   Partly Cloudy
2:53 AM 48.9 °F 41.0 °F 74% 29.93 in 10.0 mi SW 5.8 mph - N/A   Mostly Cloudy
3:53 AM 50.0 °F 42.1 °F 74% 29.93 in 10.0 mi WSW 9.2 mph - N/A   Overcast
4:53 AM 50.0 °F 42.1 °F 74% 29.94 in 10.0 mi WSW 6.9 mph - N/A   Overcast
5:53 AM 50.0 °F 43.0 °F 77% 29.95 in 10.0 mi West 6.9 mph - N/A   Overcast
6:53 AM 50.0 °F 43.0 °F 77% 29.96 in 10.0 mi WSW 6.9 mph - N/A   Overcast
7:53 AM 50.0 °F 43.0 °F 77% 29.98 in 10.0 mi West 4.6 mph - 0.00 in Rain Light Rain
8:53 AM 51.1 °F 45.0 °F 80% 30.00 in 10.0 mi WSW 4.6 mph - 0.00 in Rain Light Rain
9:53 AM 53.1 °F 46.0 °F 77% 30.01 in 10.0 mi West 5.8 mph - 0.00 in Rain Light Rain
10:53 AM 55.0 °F 45.0 °F 69% 30.02 in 10.0 mi West 6.9 mph - 0.00 in Rain Light Rain
11:53 AM 57.0 °F 44.1 °F 62% 30.02 in 10.0 mi West 5.8 mph - 0.00 in   Overcast
12:53 PM 59.0 °F 43.0 °F 55% 30.02 in 10.0 mi WNW 3.5 mph - 0.00 in   Overcast
1:53 PM 62.1 °F 43.0 °F 50% 30.01 in 10.0 mi West 8.1 mph - N/A   Overcast
2:53 PM 63.0 °F 42.1 °F 46% 30.01 in 10.0 mi West 9.2 mph - N/A   Mostly Cloudy
3:53 PM 64.9 °F 41.0 °F 42% 30.00 in 10.0 mi WSW 6.9 mph - N/A   Mostly Cloudy
4:53 PM 64.9 °F 41.0 °F 42% 30.01 in 10.0 mi SW 6.9 mph - N/A   Clear
5:53 PM 63.0 °F 39.9 °F 43% 30.02 in 10.0 mi SW 9.2 mph - N/A   Clear
6:53 PM 55.9 °F 39.9 °F 55% 30.03 in 10.0 mi SSW 6.9 mph - N/A   Clear
7:53 PM 52.0 °F 39.9 °F 63% 30.04 in 10.0 mi SSW 6.9 mph - N/A   Clear
8:53 PM 53.1 °F 39.9 °F 61% 30.05 in 10.0 mi SSW 8.1 mph - N/A   Overcast
9:53 PM 54.0 °F 41.0 °F 62% 30.06 in 10.0 mi Calm Calm - N/A   Overcast
10:53 PM 51.1 °F 43.0 °F 74% 30.06 in 10.0 mi Calm Calm - N/A   Overcast
11:53 PM 54.0 °F 43.0 °F 66% 30.06 in 10.0 mi SW 6.9 mph - N/A   Mostly Cloudy